Погода в Лилле

Франция     50°37′58″N   3°02′19″E
темп.,
°C
ветер,
м/с
пор.,
м/с
влажн.,
%
обл.,
%
осадки,
мм/ч
давл.,
гПа
погр.,
м
20 января, ср
ср2001:00+7ююз81785100 0.0 1004742
04:00+8ююз91879100 0.4 1001897
07:00+7ююз81776100 0.4 999681
10:00+7ю91784100 0.1 999627
13:00+9ююз91668100 0.5 997850
16:00+9ю91866100 0.0 993821
19:00+9ююз91867100 0.0 9921064
22:00+9ююз10207499 0.0 9901180
21 января, чт
чт2101:00+10ю13257296 0.1 9831546
04:00+8зюз112174100 3.4 9851769
07:00+5зюз6167467 3.4 991994
10:00+6юз916780 0.0 9921107
13:00+8юз10167132 0.0 9931380
16:00+8ююз81569100 0.1 9911351
19:00+6ююв51191100 2.3 987833
22:00+8юз41588100 2.7 9851159
22 января, пт
пт2201:00+4зсз41187100 8.4 987830
04:00+3юз5108868 0.1 990391
07:00+2юз359055 0.1 992122
10:00+4ююз498796 0.0 993365
13:00+6ююз357996 0.1 993475
16:00+6юз1280100 0.0 992431
19:00+5з1186100 0.4 99326
22:00+3ссз2490100 0.1 995117
23 января, сб
сб2301:00+2зсз228399 0.2 99637
04:00+1з22860 0.0 99535
07:00+1зюз118637 0.0 99622
10:00+2юв2381100 0.0 996136
13:00+3сз1185100 0.4 997257
16:00+3ссв2394100 0.1 997268
19:00+1с3596100 0.6 998280
22:00+1с3794100 1.1 998528
24 января, вс
вс2401:00+1зсз3595100 1.2 999235
04:000зюз238877 0.0 99964
07:00−1юз238239 0.0 99964
10:000ю377965 0.0 999236
13:00+3ю587259 0.0 998704
16:00+2ю5895100 1.0 997466
19:000юз369276 1.0 999157
22:00+2сз389433 0.0 1001454